O3B FM5 1 39188U 13031A 25189.44110728 -.00000016 00000-0 00000-0 0 9997 2 39188 0.0348 349.1817 0002579 120.2717 250.5743 5.00116050219840 O3B FM4 1 39189U 13031B 25188.74764247 -.00000017 00000-0 00000-0 0 9992 2 39189 0.0567 8.4647 0002622 148.3239 203.2230 5.00115050219822 O3B FM2 1 39190U 13031C 25189.61331355 -.00000016 00000-0 00000-0 0 9990 2 39190 0.0620 11.1886 0002802 97.9373 250.9042 5.00115899219920 O3B PFM 1 39191U 13031D 25188.42973275 -.00000017 00000-0 00000-0 0 9993 2 39191 0.0424 355.6262 0003996 236.2570 128.0806 5.00639878219425 O3B FM3 1 40079U 14038A 25189.29405968 -.00000016 00000-0 00000-0 0 9992 2 40079 0.0513 1.8438 0003682 62.5984 295.5957 5.00115487195848 O3B FM7 1 40080U 14038B 25187.64103546 -.00000018 00000-0 00000-0 0 9990 2 40080 0.0518 10.4128 0003504 125.4479 224.1670 5.00115551200599 O3B FM6 1 40081U 14038C 25189.66700801 -.00000016 00000-0 00000-0 0 9990 2 40081 0.0519 5.0288 0002792 101.1627 253.8390 5.00115683200642 O3B FM8 1 40082U 14038D 25189.12075791 -.00000017 00000-0 00000-0 0 9996 2 40082 0.0519 6.2213 0002573 99.0609 254.7460 5.00115851200731 O3B FM10 1 40348U 14083A 25188.94754422 -.00000017 00000-0 00000-0 0 9995 2 40348 0.0713 13.1005 0002702 92.6433 254.2858 5.00115145192671 O3B FM11 1 40349U 14083B 25189.56019341 -.00000016 00000-0 00000-0 0 9998 2 40349 0.0441 359.5336 0003210 115.8306 244.6689 5.00115716192721 O3B FM12 1 40350U 14083C 25189.58741568 -.00000016 00000-0 00000-0 0 9995 2 40350 0.0449 359.8042 0002915 106.3454 253.8822 5.00115883192735 O3B FM9 1 40351U 14083D 25189.41431222 -.00000016 00000-0 00000-0 0 9991 2 40351 0.0429 0.3992 0002724 107.9023 251.7278 5.00115697192873